Regional Weather Roundup
Issued by NWS

Home | Current Version | Previous Version | Graphics & Text | Print | Product List | Glossary Off
Versions: 1 2 3 4 5 6 7 8 9 10 11 12 13 14 15 16 17 18 19 20 21 22 23 24 25 26 27 28 29 30 31 32 33 34 35 36 37 38 39 40 41 42 43 44 45 46 47 48 49 50

000
ASUS43 KMPX 231010
RWRMN
WEATHER ROUNDUP FOR MINNESOTA
NATIONAL WEATHER SERVICE TWIN CITIES/CHANHASSEN MN
500 AM CDT WED JUL 23 2014


NOTE: "FAIR" INDICATES FEW OR NO CLOUDS BELOW 12,000 FEET WITH NO
SIGNIFICANT WEATHER AND/OR OBSTRUCTIONS TO VISIBILITY. N/A MEANS
CURRENT SKY AND/OR WEATHER CONDITIONS ARE NOT AVAILABLE.

MNZ060>063-068>070-231100-
   Twin Cities Metro

CITY           SKY/WX    TMP DP  RH WIND       PRES   REMARKS
TWIN CITIES    PTCLDY    64  57  78 CALM      30.21R
ST PAUL          N/A     62  56  80 NW5       30.21R
CRYSTAL        CLEAR     61  54  77 CALM      30.20R
BLAINE         CLEAR     61  57  88 CALM      30.22R
LAKEVILLE      CLEAR     59  55  88 CALM      30.21S
EDEN PRAIRIE   CLEAR     62  56  80 CALM      30.20R
SOUTH ST PAUL  CLEAR     64  56  78 CALM      30.21R
LAKE ELMO      FAIR      59  55  88 CALM      30.22R
$$
MNZ001>005-007-008-013>017-022>024-027-028-231100-
   Northwest Minnesota

CITY           SKY/WX    TMP DP  RH WIND       PRES   REMARKS
BEMIDJI        CLEAR     51  51  97 NW6       30.27R
HALLOCK        CLEAR     57  54  88 N5        30.29R
ROSEAU         CLEAR     54  48  82 CALM      30.28S
WARROAD        MOCLDY    54  52  94 NW6       30.28R
THIEF RVR FALL PTCLDY    59  55  88 N7        30.28R
CROOKSTON      CLEAR     59  55  88 CALM      30.28R
FOSSTON        CLEAR     52  50  93 CALM      30.28S
DETROIT LAKES  PTCLDY    59  55  88 NW5       30.28S
MOORHEAD       PTCLDY    59  59 100 CALM      30.28R
PARK RAPIDS    PTCLDY    53  51  93 NW3       30.26R
$$
MNZ006-009>011-018-025>026-231100-
   North Central Minnesota

CITY           SKY/WX    TMP DP  RH WIND       PRES   REMARKS
BAUDETTE       MOCLDY    57  55  93 CALM      30.28R
FLAG ISLAND    CLEAR     63  55  77 CALM      30.26R
INTL FALLS     CLOUDY    57  55  93 NW3       30.25R
WASKISH        CLEAR     55  54  94 CALM      30.27R
BIG FORK       PTCLDY    54  52  94 CALM      30.25R
LONGVILLE      CLEAR     55  54  94 CALM      30.25R
GRAND RAPIDS   CLEAR     55  52  88 CALM      30.25R
CRANE LAKE     CLEAR     48  48 100 CALM      30.26R
ORR            CLEAR     54  52  94 CALM      30.23R
COOK           CLEAR     50  48  93 CALM      30.24R
$$
MNZ012-019>021-037-231100-
   Northeast Minnesota

CITY           SKY/WX    TMP DP  RH WIND       PRES   REMARKS
DULUTH         PTCLDY    59  52  77 N5        30.21R
ELY            CLEAR     50  48  93 CALM      30.23R
HIBBING        PTCLDY    54  51  90 NW5       30.23R
DULUTH HARBOR  CLEAR     59  55  88 CALM      30.20R
TWO HARBORS    MOCLDY    57  52  82 CALM      30.19R
SILVER BAY     CLEAR     52  52 100 CALM      30.20R
GRAND MARAIS     N/A     55  52  89 CALM      30.18R
G MARAIS ARPRT CLOUDY    52  48  87 N3        30.22S
$$
MNZ029>031-032-039>041-046>048-054>057-064-231100-
   West Central Minnesota

CITY           SKY/WX    TMP DP  RH WIND       PRES   REMARKS
FERGUS FALLS   PTCLDY    59  52  77 CALM      30.27R
WHEATON        CLEAR     55  54  94 N5        30.29R
MORRIS         CLEAR     54  54 100 NW5       30.26R FOG
ALEXANDRIA     CLEAR     61  57  87 N5        30.27R
ELBOW LAKE     FAIR      60  56  89 CALM      30.27R
WADENA         PTCLDY    54  54 100 N3        30.26S
GLENWOOD       CLEAR     57  55  94 N5        30.27R
APPLETON       CLEAR     57  54  88 CALM      30.26R
BENSON         CLEAR     54  54 100 N5        30.26R
ORTONVILLE     CLEAR     57  54  88 CALM      30.27R
MADISON        CLEAR     57  55  94 CALM      30.26R
WILLMAR        FAIR      57  52  82 NE6       30.26R
$$
MNZ033>034-036-042>043-049>051-058-059-231100-
   Central Minnesota

CITY           SKY/WX    TMP DP  RH WIND       PRES   REMARKS
ST CLOUD       CLEAR     57  53  86 NW5       30.23R
SAUK CENTRE    FAIR      55  53  94 CALM      30.26R
PAYNESVILLE    CLEAR     50  50  99 CALM      30.25R
AITKIN         CLEAR     54  46  76 CALM      30.23R HAZE
PINE RIVER     CLEAR     54  52  94 CALM      30.28R
BRAINERD       CLEAR     53  51  93 CALM      30.25R
STAPLES        PTCLDY    54  52  94 NW3       30.26R
LONG PRAIRIE   FAIR      55  52  88 NW5       30.27R
LITTLE FALLS   CLEAR     54  52  94 CALM      30.25R FOG
LITCHFIELD       N/A     61  57  88 CALM      30.25R
BUFFALO        CLEAR     60  54  81 CALM      30.23S
MAPLE LAKE     CLEAR     60  56  87 CALM      30.24R
$$
MNZ037-044-045-052-053-231100-
   East Central Minnesota

CITY           SKY/WX    TMP DP  RH WIND       PRES   REMARKS
PRINCETON      CLEAR     55  54  94 CALM      30.23R
MORA           CLEAR     55  50  82 CALM      30.24R
CAMBRIDGE      CLEAR     57  48  72 CALM      30.20S
RUSH CITY      MOCLDY    54  53  94 CALM      30.22R
MOOSE LAKE     CLEAR     55  52  88 N3        30.20R
HINCKLEY       FAIR      57  54  88 N5        30.22R
CLOQUET        CLEAR     54  50  87 NW5       30.22R
MCGREGOR       CLEAR     54  52  94 CALM      30.24R
$$
MNZ071>073-080-081-089-090-097-098-231100-
   Southwest Minnesota

CITY           SKY/WX    TMP DP  RH WIND       PRES   REMARKS
MONTEVIDEO     CLEAR     57  55  94 N5        30.27R
GRANITE FALLS  CLEAR     54  52  94 W6        30.27R
CANBY          CLEAR     58  56  93 NW6       30.27S
MARSHALL       CLEAR     57  54  88 N8        30.24R
REDWOOD FALLS  CLEAR     61  55  81 N7        30.23R
OLIVIA         CLEAR     55  52  88 N5        30.23R
PIPESTONE      CLEAR     57  54  88 NE3       30.27R
WINDOM         PTCLDY    55  54  94 N6        30.23F
WORTHINGTON    PTCLDY    55  54  94 NW6       30.25S
JACKSON        PTCLDY    55  52  88 NE5       30.23F
TRACY          CLEAR     59  56  89 NW7       30.26R
SLAYTON        PTCLDY    56  55  93 CALM      30.27R
$$
MNZ065>067-074>077-082>085-091>093-231100-
   South Central Minnesota

CITY           SKY/WX    TMP DP  RH WIND       PRES   REMARKS
MANKATO        CLEAR     59  52  77 N3        30.21S
NEW ULM        CLEAR     61  55  82 N6        30.20F
ST JAMES       CLEAR     55  54  94 CALM      30.22F
FAIRMONT       CLEAR     57  52  82 N6        30.22S
GLENCOE        CLEAR     61  54  77 N3        30.21F
FARIBAULT      CLEAR     59  54  82 CALM      30.22R
OWATONNA       CLEAR     55  54  94 CALM      30.22R
WASECA         CLEAR     55  52  88 N6        30.22F
ALBERT LEA     CLEAR     59  55  88 CALM      30.21R
$$
MNZ078>079-086>088-094>096-231100-
   Southeast Minnesota

CITY           SKY/WX    TMP DP  RH WIND       PRES   REMARKS
ROCHESTER      PTCLDY    60  56  86 NW6       30.23R
RED WING       PTCLDY    61  57  88 CALM      30.20R
STANTON        PTCLDY    58  55  89 CALM      30.20R
DODGE CENTER   CLEAR     61  55  82 N6        30.22R
WINONA         CLEAR     63  61  94 NW3       30.19R
AUSTIN         CLEAR     59  55  88 CALM      30.21R
PRESTON        PTCLDY    60  61 100 N3        30.21R
$$
ABBREVIATIONS USED IN REMARKS
   TC - TEMPERATURES IN CELSIUS
  WCI - WIND CHILL INDEX
   HX - HEAT INDEX
  VSB - VISIBILITY
$$


USA.gov is the U.S. government's official web portal to all federal, state and local government web resources and services.